When you browse on this site, cookies collect data to enhance your experience and personalize the content and advertising you see.
Visit our Privacy Policy to learn more. By continuing to use the site, you agree to this use of cookies and data.
  • In Hungary
  • List of Countries
  • For 7 days
  • Water Temperature
  • Satellite Maps
  • Weather Map
  • News
  • Weather Widgets
  • user-avatar
    Login

    Hourly Weather Chipurupalle

    Today, 16 January, Wednesday

    Time Temperature Precipitation Wind Pressure Humidity
    00:00 +21°C° 0 mm 1 mps 754 mmHg 82%
    01:00 +21°C° 0 mm 1 mps 754 mmHg 82%
    02:00 +21°C° 0 mm 1 mps 754 mmHg 83%
    03:00 +19°C° 0 mm 2 mps 753 mmHg 83%
    04:00 +19°C° 0 mm 2 mps 753 mmHg 83%
    05:00 +19°C° 0 mm 2 mps 754 mmHg 83%
    06:00 +20°C° 0 mm 1 mps 753 mmHg 86%
    07:00 +21°C° 0 mm 1 mps 753 mmHg 79%
    08:00 +22°C° 0 mm 1 mps 754 mmHg 72%
    09:00 +24°C° 0 mm 2 mps 754 mmHg 65%
    10:00 +25°C° 0 mm 2 mps 754 mmHg 60%
    11:00 +27°C° 0 mm 2 mps 754 mmHg 54%
    12:00 +29°C° 0 mm 2 mps 754 mmHg 48%
    13:00 +29°C° 0 mm 3 mps 753 mmHg 48%
    14:00 +29°C° 0 mm 3 mps 753 mmHg 48%
    15:00 +30°C° 0 mm 4 mps 752 mmHg 47%
    16:00 +28°C° 0 mm 4 mps 752 mmHg 54%
    17:00 +27°C° 0 mm 4 mps 752 mmHg 62%
    18:00 +25°C° 0 mm 4 mps 752 mmHg 69%
    19:00 +24°C° 0 mm 3 mps 752 mmHg 73%
    20:00 +23°C° 0 mm 2 mps 753 mmHg 77%
    21:00 +22°C° 0 mm 1 mps 753 mmHg 80%
    22:00 +22°C° 0 mm 1 mps 753 mmHg 82%
    23:00 +21°C° 0 mm 1 mps 753 mmHg 83%

    Tomorrow, 17 January, Thursday

    Time Temperature Precipitation Wind Pressure Humidity
    00:00 +21°C° 0 mm 1 mps 753 mmHg 85%
    01:00 +20°C° 0 mm 1 mps 753 mmHg 86%
    02:00 +20°C° 0 mm 1 mps 753 mmHg 88%
    03:00 +20°C° 0 mm 1 mps 752 mmHg 90%
    04:00 +19°C° 0 mm 1 mps 752 mmHg 91%
    05:00 +19°C° 0 mm 1 mps 752 mmHg 91%
    06:00 +19°C° 0 mm 1 mps 752 mmHg 92%
    07:00 +20°C° 0 mm 1 mps 753 mmHg 86%
    08:00 +22°C° 0 mm 1 mps 753 mmHg 80%
    09:00 +23°C° 0 mm 1 mps 753 mmHg 74%
    10:00 +25°C° 0 mm 1 mps 753 mmHg 65%
    11:00 +27°C° 0 mm 1 mps 753 mmHg 56%
    12:00 +29°C° 0 mm 1 mps 753 mmHg 47%
    13:00 +30°C° 0 mm 2 mps 752 mmHg 44%
    14:00 +30°C° 0 mm 2 mps 752 mmHg 42%
    15:00 +31°C° 0 mm 3 mps 751 mmHg 39%
    16:00 +29°C° 0 mm 3 mps 751 mmHg 48%
    17:00 +27°C° 0 mm 4 mps 751 mmHg 56%
    18:00 +25°C° 0 mm 4 mps 751 mmHg 64%
    19:00 +24°C° 0 mm 3 mps 752 mmHg 69%
    20:00 +23°C° 0 mm 2 mps 752 mmHg 74%
    21:00 +20°C° 0 mm 0 mps 753 mmHg 78%
    22:00 +19°C° 0 mm 0 mps 753 mmHg 80%
    23:00 +19°C° 0 mm 0 mps 753 mmHg 81%

    Day after tomorrow, 18 January, Friday

    Time Temperature Precipitation Wind Pressure Humidity
    00:00 +19°C° 0 mm 0 mps 753 mmHg 83%
    01:00 +20°C° 0 mm 1 mps 753 mmHg 85%
    02:00 +20°C° 0 mm 1 mps 752 mmHg 86%
    03:00 +20°C° 0 mm 1 mps 752 mmHg 88%
    04:00 +19°C° 0 mm 1 mps 752 mmHg 89%
    05:00 +19°C° 0 mm 1 mps 752 mmHg 90%
    06:00 +19°C° 0 mm 1 mps 752 mmHg 90%
    07:00 +20°C° 0 mm 1 mps 753 mmHg 84%
    08:00 +22°C° 0 mm 1 mps 754 mmHg 77%
    09:00 +23°C° 0 mm 1 mps 754 mmHg 70%
    10:00 +26°C° 0 mm 1 mps 754 mmHg 61%
    11:00 +28°C° 0 mm 1 mps 754 mmHg 51%
    12:00 +28°C° 0 mm 0 mps 754 mmHg 42%
    13:00 +31°C° 0 mm 1 mps 753 mmHg 38%
    14:00 +32°C° 0 mm 2 mps 752 mmHg 35%
    15:00 +32°C° 0 mm 2 mps 751 mmHg 32%
    16:00 +30°C° 0 mm 3 mps 751 mmHg 41%
    17:00 +28°C° 0 mm 4 mps 751 mmHg 50%
    18:00 +26°C° 0 mm 4 mps 752 mmHg 59%
    19:00 +25°C° 0 mm 3 mps 752 mmHg 65%
    20:00 +23°C° 0 mm 2 mps 753 mmHg 71%
    21:00 +20°C° 0 mm 0 mps 754 mmHg 77%
    22:00 +20°C° 0 mm 0 mps 754 mmHg 79%
    23:00 +19°C° 0 mm 0 mps 753 mmHg 80%

    19 January, Saturday

    Time Temperature Precipitation Wind Pressure Humidity
    00:00 +19°C° 0 mm 0 mps 753 mmHg 81%
    01:00 +21°C° 0 mm 1 mps 753 mmHg 83%
    02:00 +20°C° 0 mm 1 mps 753 mmHg 84%
    03:00 +20°C° 0 mm 1 mps 752 mmHg 86%
    04:00 +20°C° 0 mm 1 mps 752 mmHg 86%
    05:00 +19°C° 0 mm 1 mps 752 mmHg 86%
    06:00 +19°C° 0 mm 1 mps 752 mmHg 86%
    07:00 +21°C° 0 mm 1 mps 753 mmHg 78%
    08:00 +22°C° 0 mm 1 mps 754 mmHg 70%
    09:00 +24°C° 0 mm 1 mps 754 mmHg 63%
    10:00 +26°C° 0 mm 1 mps 754 mmHg 53%
    11:00 +29°C° 0 mm 1 mps 754 mmHg 44%
    12:00 +31°C° 0 mm 1 mps 754 mmHg 34%
    13:00 +31°C° 0 mm 1 mps 753 mmHg 32%
    14:00 +32°C° 0 mm 2 mps 752 mmHg 30%
    15:00 +32°C° 0 mm 2 mps 752 mmHg 27%
    16:00 +30°C° 0 mm 3 mps 752 mmHg 36%
    17:00 +28°C° 0 mm 3 mps 752 mmHg 44%
    18:00 +27°C° 0 mm 4 mps 752 mmHg 52%
    19:00 +25°C° 0 mm 3 mps 752 mmHg 60%
    20:00 +24°C° 0 mm 2 mps 753 mmHg 68%
    21:00 +20°C° 0 mm 0 mps 754 mmHg 75%
    22:00 +22°C° 0 mm 1 mps 754 mmHg 76%
    23:00 +21°C° 0 mm 1 mps 754 mmHg 78%

    20 January, Sunday

    Time Temperature Precipitation Wind Pressure Humidity
    00:00 +21°C° 0 mm 1 mps 754 mmHg 79%
    01:00 +20°C° 0 mm 1 mps 753 mmHg 79%
    02:00 +20°C° 0 mm 1 mps 753 mmHg 79%
    03:00 +20°C° 0 mm 1 mps 753 mmHg 80%
    04:00 +19°C° 0 mm 1 mps 753 mmHg 79%
    05:00 +19°C° 0 mm 1 mps 753 mmHg 79%
    06:00 +19°C° 0 mm 1 mps 753 mmHg 79%
    07:00 +21°C° 0 mm 1 mps 754 mmHg 71%
    08:00 +22°C° 0 mm 1 mps 754 mmHg 64%
    09:00 +24°C° 0 mm 1 mps 755 mmHg 57%
    10:00 +26°C° 0 mm 1 mps 755 mmHg 51%
    11:00 +28°C° 0 mm 1 mps 755 mmHg 44%
    12:00 +30°C° 0 mm 1 mps 754 mmHg 37%
    13:00 +31°C° 0 mm 1 mps 754 mmHg 35%
    14:00 +31°C° 0 mm 2 mps 753 mmHg 33%
    15:00 +32°C° 0 mm 2 mps 752 mmHg 30%
    16:00 +30°C° 0 mm 2 mps 752 mmHg 38%
    17:00 +29°C° 0 mm 3 mps 752 mmHg 45%
    18:00 +27°C° 0 mm 3 mps 752 mmHg 52%
    19:00 +25°C° 0 mm 2 mps 753 mmHg 60%
    20:00 +24°C° 0 mm 2 mps 753 mmHg 68%
    21:00 +22°C° 0 mm 1 mps 754 mmHg 76%
    22:00 +22°C° 0 mm 1 mps 754 mmHg 78%
    23:00 +21°C° 0 mm 1 mps 754 mmHg 80%

    21 January, Monday

    Time Temperature Precipitation Wind Pressure Humidity
    00:00 +21°C° 0 mm 1 mps 754 mmHg 82%
    01:00 +20°C° 0 mm 1 mps 753 mmHg 83%
    02:00 +20°C° 0 mm 1 mps 753 mmHg 84%
    03:00 +18°C° 0 mm 0 mps 752 mmHg 85%
    04:00 +18°C° 0 mm 0 mps 753 mmHg 85%
    05:00 +17°C° 0 mm 0 mps 753 mmHg 85%
    06:00 +19°C° 0 mm 1 mps 753 mmHg 85%
    07:00 +21°C° 0 mm 1 mps 754 mmHg 77%
    08:00 +22°C° 0 mm 1 mps 754 mmHg 69%
    09:00 +24°C° 0 mm 1 mps 755 mmHg 62%
    10:00 +27°C° 0 mm 1 mps 755 mmHg 53%
    11:00 +29°C° 0 mm 1 mps 754 mmHg 44%
    12:00 +31°C° 0 mm 1 mps 754 mmHg 35%
    13:00 +32°C° 0 mm 1 mps 753 mmHg 33%
    14:00 +32°C° 0 mm 2 mps 752 mmHg 31%
    15:00 +33°C° 0 mm 3 mps 752 mmHg 28%
    16:00 +31°C° 0 mm 3 mps 752 mmHg 35%
    17:00 +29°C° 0 mm 3 mps 752 mmHg 42%
    18:00 +27°C° 0 mm 3 mps 752 mmHg 49%
    19:00 +25°C° 0 mm 3 mps 752 mmHg 57%
    20:00 +24°C° 0 mm 2 mps 753 mmHg 64%
    21:00 +22°C° 0 mm 1 mps 754 mmHg 71%
    22:00 +22°C° 0 mm 1 mps 753 mmHg 73%
    23:00 +21°C° 0 mm 1 mps 753 mmHg 75%
    Show more